Regional Weather Roundup
Issued by NWS Kansas City/Pleasant Hill, MO

Home | Current Version | Previous Version | Graphics & Text | Print | Product List | Glossary Off
Versions: 1 2 3 4 5 6 7 8 9 10 11 12 13 14 15 16 17 18 19 20 21 22 23 24 25 26 27 28 29 30 31 32 33 34 35 36 37 38 39 40 41 42 43 44 45 46 47 48 49 50

000
ASUS43 KEAX 310811
RWREAX

WEATHER ROUNDUP FOR EASTERN KANSAS AND NORTHWEST MISSOURI
NATIONAL WEATHER SERVICE KANSAS CITY/PLEASANT HILL MO
200 AM CST SAT JAN 31 2015

KSZ040-057-103>105-MOZ028-029-037-043-310900-
...KANSAS CITY METROPOLITAN AREA...

CITY           SKY/WX    TMP DP  RH WIND       PRES   REMARKS
K.C. INTL      CLOUDY    34  24  67 SW6       30.30F WCI  29
K.C. DOWNTOWN  CLOUDY    38  23  55 S6        30.31F WCI  33
LEES SUMMIT    CLOUDY    37  20  50 SW9       30.31F WCI  30
OLATHE - IXD   CLOUDY    35  25  66 S5        30.31F WCI  31
OLATHE - OJC   CLOUDY    35  24  64 CALM      30.30F
LAWRENCE       LGT RAIN  34  29  82 CALM      30.31F

$$

MOZ001>008-011>017-020>025-030>033-038>040-044>046-053-054-310900-
...NORTHERN AND CENTRAL MISSOURI...

CITY           SKY/WX    TMP DP  RH WIND       PRES   REMARKS
ST. JOSEPH     CLOUDY    34  26  72 S6        30.30F WCI  29
MOSBY          CLOUDY    32  23  69 CALM      30.32F
WARRENSBURG    CLOUDY    32  21  64 S3        30.32F
WHITEMAN AFB   CLOUDY    32  22  68 SE2       30.32F
CLINTON        CLOUDY    34  28  80 MISG      30.34S
SEDALIA        CLOUDY    33  21  61 S7        30.33F WCI  27
WARSAW         NOT AVBL
MARSHALL       CLOUDY    32  25  74 S3        30.35F
CHILLICOTHE      N/A     30  21  69 S3        30.32F
MOBERLY        CLOUDY    32  19  59 S7        30.33F WCI  26
KIRKSVILLE     MOCLDY    28  20  71 SW7       30.31F WCI  21

$$

MOZ041-047>049-056>058-063>065-088>090-097-310900-
...EASTERN AND SOUTHERN MISSOURI...

CITY           SKY/WX    TMP DP  RH WIND       PRES   REMARKS
ST. LOUIS INTL CLOUDY    33  20  58 S7        30.37F WCI  27
SPIRIT OF STL  CLOUDY    26  20  77 CALM      30.36F
COLUMBIA       CLOUDY    30  21  69 S6        30.33F WCI  24
JEFFERSON CITY CLOUDY    31  21  66 E3        30.35F
MEXICO         CLOUDY    30  27  86 S5        30.34F WCI  25
HANNIBAL       MOCLDY    27  18  69 S7        30.33F WCI  19
ROLLA          CLOUDY    34  17  50 S8        30.32F WCI  27
LEBANON        CLOUDY    36  19  51 CALM      30.32F
OSAGE BEACH    CLOUDY    36  18  48 S5        30.34F WCI  32
SPRINGFIELD    CLOUDY    39  20  46 SE7       30.31F WCI  34
BRANSON        CLOUDY    37  19  48 CALM      30.34R
NEVADA         CLOUDY    36  25  64 CALM      30.34S
JOPLIN         CLOUDY    39  29  67 CALM      30.32F
WEST PLAINS    CLOUDY    33  23  66 SE3       30.36F

$$

IAZ060-094-KSZ022-034>040-054-083-096-NEZ052-066-093-310900-
...KANSAS...SOUTHEAST NEBRASKA AND IOWA...

CITY           SKY/WX    TMP DP  RH WIND       PRES   REMARKS
TOPEKA         CLOUDY    36  31  82 S5        30.31F WCI  32
MANHATTAN      LGT RAIN  36  35  96 CALM      30.28F FOG
EMPORIA        LGT RAIN  36  35  96 SE6       30.27F WCI  31
CHANUTE        LGT RAIN  37  34  89 E9        30.28F WCI  30
WICHITA        CLOUDY    39  24  55 SE5       30.23F
OMAHA          CLOUDY    33  26  75 SE9       30.22F WCI  25
LINCOLN        CLOUDY    39  33  79 SW15      30.23F WCI  31
FALLS CITY     CLOUDY    36  26  67 SW8       30.27F WCI  30
LAMONI         MOCLDY    27  19  72 S10       30.25F WCI  17
DES MOINES     PTCLDY    27  18  69 S8        30.23F WCI  19

$$



USA.gov is the U.S. government's official web portal to all federal, state and local government web resources and services.